Погода в Щучинске

Поиск расширенной информации на нашем сайте:

Полезная информация:

Новости сайта



02.01.2020
Опубликован Долгосрочный прогноз погоды по городам России и ближнего зарубежья на январь 2020 года.
Карты: Прогноз на январь и февраль 2020 года, Сравнение прогнозируемой аномалии приземной температуры воздуха на январь 2020 года по разным моделям.




Погода в Щучинске - сегодня

Время (UTC), дата Ветер
(°,м/с) 
Видим.   Явления Облачность Т
(°С)
Тd
(°С)
f(%) Тe
(°С)
Pmin
(гПа)
dP
(гПа)
Po
(мм)
O2
(г/м3)
Тmin Tmax R s Состояние
почвы
12 22.10.21 210 (ЮЗ) 9-16{20}  50000 м  {ливн. осадки}  10/10 300 м кучево-дожд. 
[Cb cap]
+0.6 -1 89 -4  1013.7  0.3  724  291           
15 22.10.21 220 (ЮЗ) 8{18}  н/о  {ливн. осадки}  10/10 300 м кучево-дожд. 
[Cb cap]
+0.9 +0 94 -3  1015.4  1.6  725  291    +1.5       
18 22.10.21 190 (Ю) н/о  {ливн. осадки}  10/10 300 м кучево-дожд. 
[Cb cap]
+1.9 +1 94 -2  1015.5  0.3  725  290    +1.5  0.2     
21 22.10.21 210 (ЮЗ) н/о    10/10 300 м кучево-дожд. 
[Cb cap]
+3.3 +2.7 96 1014.3  -0.9  725  288           
00 23.10.21 210 (ЮЗ) н/о  {ливн. осадки}  10/10 200 м кучево-дожд. 
[Cb cap]
+4.5 +4.1 97 +1  1012.8  -1.2  724  286           
03 23.10.21 220 (ЮЗ) 50000 м    10/10 300 м кучево-дожд. 
[Cb cap]
+4.4 +3.1 91 +1  1013.5  0.6  724  287           
06 23.10.21 230 (ЮЗ) 7{16}  50000 м    10/10 300 м кучево-дожд. 
[Cb cap]
+5.9 +3.2 83 +3  1014.1  0.9  725  285  +0.8    0.6     
09 23.10.21 230 (ЮЗ) 20000 м    10/10 600 м кучево-дожд. 
[Cb cap]
+8.7 +4.9 77 +7  1014.2  0.5  725  282           
12 23.10.21 240 (ЮЗ) 20000 м    10/8 600 м кучево-дожд., верхняя 
[Cb cap|Ci sp]
+10.2 +5.4 72 +8  1014.7  0.8  726  281           
15 23.10.21 240 (ЮЗ) н/о    10/10 600 м кучево-дожд. 
[Cb cap]
+10.3 +5.9 74 +9  1016.6  1.8  727  281    +10.4       
18 23.10.21 250 (З) н/о    10/10 600 м кучево-дожд. 
[Cb cap]
+10.5 +5.9 73 +9  1017.6  728  282    +10.4       
21 23.10.21 240 (ЮЗ) н/о    6/3 600 м кучево-дожд., верхняя 
[Cb cap|Ci sp]
+7.6 +4.9 83 +6  1019.4  1.2  729  285           
00 24.10.21 230 (ЮЗ) н/о    8/8 600 м кучево-дожд. 
[Cb cap]
+8.2 +6 86 +7  1019.8  0.5  729  284           
03 24.10.21 220 (ЮЗ) 50000 м    10/10 300 м кучево-дожд. 
[Cb cap]
+8.4 +7.2 92 +7  1020.2  0.4  730  284           
06 24.10.21 230 (ЮЗ) 4000 м  дымка  10/10 600 м 
[Sc]
+9.2 +7.3 88 +7  1020.8  0.7  730  283  +7.4         
09 24.10.21 240 (ЮЗ) 20000 м    10/10 1000 м 
[Sc]
+11.6 +7.5 76 +10  1019.9  -0.4  730  281           
12 24.10.21 220 (ЮЗ) 20000 м    10/5 1000 м средняя, верхняя 
[Sc|Ac trans|Ci sp]
+11.9 +5.5 65 +10  1019.2  -0.7  729  281           
15 24.10.21 210 (ЮЗ) 7{15}  н/о    6/0 верхняя 
[Ci fib]
+8.6 -2.1 47 +6  1019.3  -0.5  729  285    +13.6       
18 24.10.21 230 (ЮЗ) н/о    10/0 верхняя 
[Ci]
+6.2 -3.7 49 +4  1018.5  -1.1  728  287    +13.6       
21 24.10.21 210 (ЮЗ) н/о    6/0 верхняя 
[Ci fib]
+4.4 -3.6 56 +1  1017.6  -1.2  727  289           
00 25.10.21 210 (ЮЗ) н/о    10/0 верхняя 
[Ci sp]
+3.4 -4.3 57 1016.7  -1  727  290           
03 25.10.21 240 (ЮЗ) 50000 м    10/0 верхняя 
[Cc]
+1.6 -4.1 66 -1  1018.1  727  292           
06 25.10.21 180 (Ю) 20000 м    10/5 1000 м средняя, верхняя 
[Sc|Ac As|Ci sp]
+8.8 -1.6 48 +8  1016.6  -0.2  727  284  +1.4         
09 25.10.21 190 (Ю) 20000 м    10/3 1000 м кучево-дожд., средняя, верхняя 
[Cb cap|Ac cast|Ci fib]
+10.5 -1.9 42 +10  1015.7  -0.6  727  282           
12 25.10.21 180 (Ю) 20000 м    10/0 средняя 
[Ac lent]
+10.8 -1.3 43 +10  1014.4  -1.2  726  281           
Время (UTC), дата Ветер
(°,м/с) 
Видим.   Явления Облачность Т
(°С)
Тd
(°С)
f(%) Тe
(°С)
Pmin
(гПа)
dP
(гПа)
Po
(мм)
O2
(г/м3)
Тmin Tmax R s Состояние
почвы

Для получения пояснительной информации подведите курсор к названию столбца.

ПОГОДА в Щучинске - архив

Всё, что Вы хотите узнать о погоде в Щучинске - удобно и подробно!

Выберите нужную дату (начиная с 1 января 2019* года) и нажмите кнопку "Найти".
Будут отображены архивные сводки погоды по пункту Щучинск, начиная с указанной даты.


Отображать данные в формате CSV (для использования в таблицах Excel)


Внимание! Наш архив погоды предназначен исключительно для личного некоммерческого использования в познавательных целях. Если Вам необходимы официальные справки о состоянии погоды (для производственных, юридических, коммерческих и т.п. целей), обращайтесь в органы Росгидромета.

*Примечание: данная дата относится к архиву по метеостанциям СССР (Россия, СНГ, Балтия).
Архив по метеостанциям Зарубежной Европы и Азии (кроме Китая) хранится 10 дней, по другим регионам земного шара (Китай, Африка, Америка, Австралия, Океания) - 1 день.

Щучинск - район местоположения метеостанции


Название, широта, долгота, высота метеостанции:
Щучинск 52.9°ш. 70.2°д. 395 м над ур. моря [Казахстан]

Дополнительная информация

В oтличие oт бoльшинства пoгoдных сайтoв мы публикуем пoдрoбную метеoинфoрмацию в детальнoм прoфессиoнальнoм фoрмате.

Характеристики температуры и влажнoсти вoздуха измеряются на высoте 2 м в тени вдали oт зданий и деревьев.
Скoрoсть ветра измеряется на высoте 10 м (на урoвне рoста челoвека скoрoсть ветра ниже в 1.5-2 раза). Если метеoстанция нахoдится в гoрoде или в лесу, тo скoрoсть ветра занижена на 2-4 м/с пo сравнению с oткрытым местoм. Скoрoсть ветра над акватoриями крупных рек и oзёр, а также на вершинах хoлмoв на 2-5 м/с выше, чем в oбычных услoвиях.
Атмoсфернoе давление в разных тoчках местнoсти мoжет значительнo oтличаться oт давления на метеoстанции, в зависимoсти oт услoвий рельефа (при пoдъёме на 10 м давление пoнижается примернo на 1 мм рт.ст.).